| time (UTC) | temp F | wind direction | speed MPH | gust MPH | rain 1hr in | rain 24hr in | rain mn in | humidity % | barometer mb |
| 20260507064713 | 56 | 180 | 0.0 | 0.0 | 0.00 | 0.05 | 0.00 | 88 | 1009.2 |
| 20260507063812 | 56 | 180 | 0.0 | 0.0 | 0.00 | 0.05 | 0.00 | 88 | 1009.3 |
| 20260507062816 | 56 | 180 | 0.0 | 0.0 | 0.00 | 0.05 | 0.00 | 88 | 1009.0 |
| 20260507061914 | 57 | 180 | 0.0 | 0.0 | 0.00 | 0.05 | 0.00 | 90 | 1008.9 |
| 20260507061012 | 57 | 180 | 0.0 | 0.0 | 0.00 | 0.05 | 0.00 | 90 | 1008.9 |
| 20260507055014 | 57 | 180 | 0.0 | 2.0 | 0.00 | 0.05 | 0.00 | 91 | 1009.3 |
| 20260507054015 | 58 | 180 | 0.0 | 0.0 | 0.00 | 0.05 | 0.00 | 92 | 1009.5 |
| 20260507053112 | 58 | 92 | 0.0 | 0.0 | 0.00 | 0.05 | 0.00 | 92 | 1009.4 |
| 20260507051116 | 59 | 180 | 0.0 | 1.0 | 0.00 | 0.05 | 0.00 | 94 | 1009.1 |
| 20260507050113 | 59 | 180 | 0.0 | 0.0 | 0.00 | 0.05 | 0.00 | 94 | 1009.2 |
| 20260507044213 | 59 | 180 | 3.0 | 7.0 | 0.00 | 0.05 | 0.00 | 95 | 1009.1 |
| 20260507043214 | 59 | 180 | 0.0 | 1.0 | 0.00 | 0.05 | 0.00 | 95 | 1009.0 |
| 20260507042312 | 59 | 180 | 0.0 | 0.0 | 0.00 | 0.05 | 0.00 | 95 | 1008.9 |
| 20260507042213 | 59 | 180 | 0.0 | 1.0 | 0.00 | 0.05 | 0.00 | 95 | 1008.9 |
| 20260507042112 | 59 | 180 | 0.0 | 4.0 | 0.00 | 0.05 | 0.00 | 95 | 1009.1 |
| 20260507041211 | 59 | 180 | 0.0 | 3.0 | 0.00 | 0.05 | 0.00 | 93 | 1009.2 |
| 20260507040216 | 59 | 180 | 1.0 | 4.0 | 0.00 | 0.05 | 0.00 | 94 | 1009.4 |
| 20260507035219 | 59 | 180 | 0.0 | 1.0 | 0.00 | 0.05 | 0.05 | 94 | 1009.3 |
| 20260507033219 | 60 | 180 | 2.0 | 7.0 | 0.00 | 0.05 | 0.05 | 93 | 1009.0 |
| 20260507032222 | 59 | 180 | 2.0 | 7.0 | 0.00 | 0.05 | 0.05 | 93 | 1008.9 |
| 20260507031220 | 59 | 180 | 3.0 | 9.0 | 0.00 | 0.05 | 0.05 | 93 | 1008.7 |
| 20260507030222 | 59 | 180 | 4.0 | 11.0 | 0.00 | 0.05 | 0.05 | 92 | 1008.7 |
| 20260507025220 | 59 | 180 | 3.0 | 6.0 | 0.00 | 0.05 | 0.05 | 92 | 1008.7 |
| 20260507024221 | 59 | 180 | 4.0 | 13.0 | 0.00 | 0.05 | 0.05 | 93 | 1008.9 |
| 20260507022320 | 59 | 180 | 3.0 | 11.0 | 0.00 | 0.05 | 0.05 | 93 | 1008.8 |
| 20260507021419 | 59 | 180 | 0.0 | 4.0 | 0.00 | 0.05 | 0.05 | 94 | 1008.7 |
| 20260507015519 | 59 | 180 | 1.0 | 7.0 | 0.00 | 0.05 | 0.05 | 94 | 1008.8 |
| 20260507014518 | 59 | 180 | 3.0 | 11.0 | 0.00 | 0.05 | 0.05 | 94 | 1008.9 |
| 20260507013522 | 59 | 172 | 0.0 | 4.0 | 0.00 | 0.05 | 0.05 | 94 | 1009.0 |
| 20260507012522 | 58 | 180 | 3.0 | 8.0 | 0.00 | 0.05 | 0.05 | 94 | 1009.1 |
| 20260507011520 | 58 | 180 | 0.0 | 3.0 | 0.00 | 0.05 | 0.05 | 93 | 1009.3 |
| 20260507010521 | 58 | 180 | 4.0 | 10.0 | 0.00 | 0.05 | 0.05 | 93 | 1009.3 |
| 20260507005619 | 58 | 180 | 2.0 | 8.0 | 0.00 | 0.05 | 0.05 | 94 | 1009.3 |
| 20260507004620 | 58 | 180 | 5.0 | 11.0 | 0.01 | 0.05 | 0.05 | 93 | 1009.5 |
| 20260507002621 | 58 | 180 | 3.0 | 13.0 | 0.02 | 0.05 | 0.05 | 93 | 1009.2 |
| 20260507001620 | 58 | 180 | 5.0 | 11.0 | 0.02 | 0.05 | 0.05 | 92 | 1009.1 |
| 20260507000619 | 58 | 180 | 5.0 | 11.0 | 0.02 | 0.05 | 0.05 | 93 | 1008.9 |
| 20260506235620 | 58 | 180 | 3.0 | 11.0 | 0.02 | 0.05 | 0.05 | 93 | 1009.0 |
| 20260506234620 | 58 | 180 | 5.0 | 8.0 | 0.01 | 0.04 | 0.04 | 93 | 1009.2 |
| 20260506233621 | 58 | 180 | 2.0 | 7.0 | 0.01 | 0.04 | 0.04 | 92 | 1008.9 |
| 20260506232621 | 58 | 180 | 0.0 | 6.0 | 0.01 | 0.03 | 0.03 | 92 | 1008.8 |
| 20260506230719 | 59 | 180 | 1.0 | 5.0 | 0.01 | 0.03 | 0.03 | 92 | 1009.0 |
| 20260506225721 | 59 | 180 | 2.0 | 8.0 | 0.01 | 0.03 | 0.03 | 92 | 1008.9 |
| 20260506223818 | 59 | 252 | 1.0 | 9.0 | 0.02 | 0.03 | 0.03 | 91 | 1009.2 |
| 20260506222821 | 59 | 239 | 5.0 | 13.0 | 0.01 | 0.02 | 0.02 | 91 | 1009.5 |
| 20260506221918 | 60 | 277 | 8.0 | 14.0 | 0.01 | 0.02 | 0.02 | 90 | 1009.3 |
| 20260506220922 | 60 | 248 | 2.0 | 9.0 | 0.01 | 0.02 | 0.02 | 90 | 1009.5 |
| 20260506220019 | 60 | 262 | 5.0 | 11.0 | 0.01 | 0.02 | 0.02 | 89 | 1009.6 |
| 20260506215021 | 60 | 254 | 0.0 | 3.0 | 0.01 | 0.02 | 0.02 | 88 | 1009.7 |
| 20260506214020 | 61 | 249 | 5.0 | 10.0 | 0.01 | 0.02 | 0.01 | 87 | 1009.8 |
| 20260506213019 | 61 | 238 | 7.0 | 12.0 | 0.00 | 0.01 | 0.01 | 85 | 1009.8 |
| 20260506210120 | 61 | 242 | 4.0 | 11.0 | 0.00 | 0.01 | 0.01 | 83 | 1010.0 |
| 20260506205219 | 62 | 234 | 5.0 | 13.0 | 0.00 | 0.01 | 0.01 | 82 | 1009.8 |
| 20260506204220 | 62 | 239 | 0.0 | 7.0 | 0.01 | 0.01 | 0.01 | 79 | 1010.1 |
| 20260506203319 | 63 | 227 | 3.0 | 8.0 | 0.01 | 0.01 | 0.01 | 78 | 1010.1 |
| 20260506202320 | 63 | 244 | 7.0 | 12.0 | 0.01 | 0.01 | 0.01 | 77 | 1010.0 |
| 20260506200319 | 63 | 260 | 6.0 | 11.0 | 0.01 | 0.01 | 0.01 | 76 | 1009.8 |
| 20260506195320 | 64 | 242 | 7.0 | 12.0 | 0.01 | 0.01 | 0.01 | 73 | 1009.9 |
| 20260506194320 | 64 | 242 | 3.0 | 10.0 | 0.00 | 0.00 | 0.00 | 72 | 1010.3 |
| 20260506193336 | 65 | 241 | 5.0 | 14.0 | 0.00 | 0.00 | 0.00 | 70 | 1010.3 |
| 20260506192320 | 66 | 258 | 7.0 | 14.0 | 0.00 | 0.00 | 0.00 | 67 | 1010.2 |
| 20260506191321 | 67 | 243 | 5.0 | 17.0 | 0.00 | 0.00 | 0.00 | 64 | 1009.9 |
| 20260506190319 | 67 | 232 | 2.0 | 8.0 | 0.00 | 0.00 | 0.00 | 63 | 1009.9 |
| 20260506185418 | 68 | 231 | 2.0 | 5.0 | 0.00 | 0.00 | 0.00 | 63 | 1010.0 |
| 20260506184421 | 68 | 240 | 3.0 | 10.0 | 0.00 | 0.00 | 0.00 | 61 | 1009.9 |
| 20260506183518 | 68 | 240 | 7.0 | 12.0 | 0.00 | 0.00 | 0.00 | 59 | 1010.2 |
| 20260506182519 | 69 | 243 | 7.0 | 14.0 | 0.00 | 0.00 | 0.00 | 59 | 1010.2 |
| 20260506181619 | 69 | 247 | 7.0 | 13.0 | 0.00 | 0.00 | 0.00 | 59 | 1010.2 |
| 20260506181519 | 69 | 250 | 5.0 | 12.0 | 0.00 | 0.00 | 0.00 | 60 | 1010.1 |
| 20260506174618 | 69 | 224 | 3.0 | 13.0 | 0.00 | 0.00 | 0.00 | 61 | 1010.6 |
| 20260506173620 | 69 | 244 | 4.0 | 19.0 | 0.00 | 0.00 | 0.00 | 60 | 1010.7 |
| 20260506172618 | 68 | 229 | 4.0 | 10.0 | 0.00 | 0.00 | 0.00 | 61 | 1010.8 |
| 20260506170619 | 69 | 232 | 4.0 | 14.0 | 0.00 | 0.00 | 0.00 | 60 | 1010.9 |
| 20260506165718 | 69 | 220 | 1.0 | 8.0 | 0.00 | 0.00 | 0.00 | 59 | 1011.2 |
| 20260506164720 | 69 | 241 | 2.0 | 8.0 | 0.00 | 0.00 | 0.00 | 60 | 1011.0 |
| 20260506163818 | 69 | 228 | 5.0 | 12.0 | 0.00 | 0.00 | 0.00 | 60 | 1010.9 |
| 20260506162821 | 69 | 236 | 6.0 | 12.0 | 0.00 | 0.00 | 0.00 | 60 | 1011.1 |
| 20260506161820 | 69 | 242 | 2.0 | 11.0 | 0.00 | 0.00 | 0.00 | 60 | 1011.5 |
| 20260506155919 | 69 | 253 | 5.0 | 12.0 | 0.00 | 0.00 | 0.00 | 59 | 1011.8 |
| 20260506153918 | 70 | 237 | 2.0 | 11.0 | 0.00 | 0.00 | 0.00 | 58 | 1011.9 |
| 20260506152919 | 70 | 251 | 1.0 | 7.0 | 0.00 | 0.00 | 0.00 | 59 | 1012.0 |
| 20260506151920 | 70 | 246 | 4.0 | 10.0 | 0.00 | 0.00 | 0.00 | 59 | 1012.1 |
| 20260506150921 | 69 | 236 | 1.0 | 8.0 | 0.00 | 0.00 | 0.00 | 60 | 1012.4 |
| 20260506150018 | 69 | 236 | 2.0 | 7.0 | 0.00 | 0.00 | 0.00 | 60 | 1012.4 |
| 20260506145021 | 69 | 241 | 4.0 | 10.0 | 0.00 | 0.00 | 0.00 | 60 | 1012.1 |
| 20260506144119 | 69 | 253 | 1.0 | 6.0 | 0.00 | 0.00 | 0.00 | 62 | 1012.3 |
| 20260506144019 | 69 | 240 | 0.0 | 4.0 | 0.00 | 0.00 | 0.00 | 61 | 1012.3 |
| 20260506143019 | 68 | 243 | 0.0 | 2.0 | 0.00 | 0.00 | 0.00 | 63 | 1012.1 |
| 20260506142920 | 68 | 263 | 2.0 | 11.0 | 0.00 | 0.00 | 0.00 | 62 | 1012.1 |
| 20260506142019 | 68 | 230 | 1.0 | 8.0 | 0.00 | 0.00 | 0.00 | 64 | 1012.1 |
| 20260506141020 | 67 | 225 | 0.0 | 9.0 | 0.00 | 0.00 | 0.00 | 66 | 1012.4 |
| 20260506135020 | 65 | 250 | 1.0 | 10.0 | 0.00 | 0.00 | 0.00 | 69 | 1012.4 |
| 20260506134019 | 65 | 252 | 4.0 | 9.0 | 0.00 | 0.00 | 0.00 | 71 | 1012.9 |
| 20260506133118 | 64 | 235 | 1.0 | 8.0 | 0.00 | 0.00 | 0.00 | 72 | 1013.0 |
| 20260506133019 | 64 | 254 | 1.0 | 8.0 | 0.00 | 0.00 | 0.00 | 72 | 1012.9 |
| 20260506132020 | 64 | 248 | 1.0 | 11.0 | 0.00 | 0.00 | 0.00 | 73 | 1012.9 |
| 20260506131117 | 64 | 241 | 5.0 | 11.0 | 0.00 | 0.00 | 0.00 | 73 | 1012.8 |
| 20260506130120 | 63 | 257 | 2.0 | 8.0 | 0.00 | 0.00 | 0.00 | 75 | 1012.9 |
| 20260506125118 | 63 | 225 | 2.0 | 9.0 | 0.00 | 0.00 | 0.00 | 76 | 1012.9 |
| 20260506124119 | 62 | 222 | 1.0 | 9.0 | 0.00 | 0.00 | 0.00 | 77 | 1013.3 |
| 20260506123119 | 62 | 260 | 3.0 | 9.0 | 0.00 | 0.00 | 0.00 | 78 | 1013.1 |
| 20260506121219 | 61 | 241 | 1.0 | 7.0 | 0.00 | 0.00 | 0.00 | 80 | 1013.0 |
| 20260506120220 | 60 | 250 | 0.0 | 4.0 | 0.00 | 0.00 | 0.00 | 80 | 1013.5 |
| 20260506114319 | 60 | 239 | 2.0 | 11.0 | 0.00 | 0.00 | 0.00 | 80 | 1013.7 |
| 20260506113319 | 60 | 243 | 3.0 | 11.0 | 0.00 | 0.00 | 0.00 | 80 | 1013.6 |
| 20260506112321 | 60 | 231 | 5.0 | 10.0 | 0.00 | 0.00 | 0.00 | 80 | 1013.5 |
| 20260506111320 | 60 | 246 | 2.0 | 10.0 | 0.00 | 0.00 | 0.00 | 81 | 1013.4 |
| 20260506110321 | 60 | 219 | 0.0 | 7.0 | 0.00 | 0.00 | 0.00 | 81 | 1013.4 |
| 20260506105320 | 60 | 240 | 2.0 | 10.0 | 0.00 | 0.00 | 0.00 | 80 | 1013.3 |
| 20260506103319 | 60 | 230 | 2.0 | 8.0 | 0.00 | 0.00 | 0.00 | 80 | 1013.6 |
| 20260506102320 | 60 | 242 | 4.0 | 9.0 | 0.00 | 0.00 | 0.00 | 80 | 1013.5 |
| 20260506101419 | 60 | 246 | 1.0 | 8.0 | 0.00 | 0.00 | 0.00 | 80 | 1013.5 |
| 20260506094518 | 59 | 248 | 0.0 | 8.0 | 0.00 | 0.00 | 0.00 | 80 | 1013.2 |
| 20260506093518 | 60 | 247 | 3.0 | 9.0 | 0.00 | 0.00 | 0.00 | 79 | 1013.3 |
| 20260506092518 | 60 | 252 | 2.0 | 11.0 | 0.00 | 0.00 | 0.00 | 78 | 1013.1 |
| 20260506091519 | 60 | 225 | 3.0 | 14.0 | 0.00 | 0.00 | 0.00 | 78 | 1013.1 |
| 20260506091419 | 60 | 226 | 1.0 | 9.0 | 0.00 | 0.00 | 0.00 | 78 | 1013.1 |
| 20260506090419 | 60 | 249 | 2.0 | 9.0 | 0.00 | 0.00 | 0.00 | 78 | 1013.3 |
| 20260506085420 | 60 | 249 | 2.0 | 9.0 | 0.00 | 0.00 | 0.00 | 78 | 1013.4 |
| 20260506084418 | 60 | 250 | 4.0 | 11.0 | 0.00 | 0.00 | 0.00 | 77 | 1013.3 |
| 20260506083419 | 60 | 250 | 6.0 | 12.0 | 0.00 | 0.00 | 0.00 | 76 | 1013.4 |
| 20260506082517 | 60 | 235 | 3.0 | 11.0 | 0.00 | 0.00 | 0.00 | 77 | 1013.2 |
| 20260506080518 | 60 | 228 | 5.0 | 12.0 | 0.00 | 0.00 | 0.00 | 76 | 1013.2 |
| 20260506072718 | 61 | 261 | 3.0 | 10.0 | 0.00 | 0.00 | 0.00 | 73 | 1013.0 |
| 20260506071719 | 61 | 258 | 6.0 | 11.0 | 0.00 | 0.00 | 0.00 | 73 | 1012.9 |
| 20260506070718 | 61 | 259 | 7.0 | 11.0 | 0.00 | 0.00 | 0.00 | 73 | 1012.8 |